Regional Weather Roundup
Issued by NWS

Home | Current Version | Previous Version | Graphics & Text | Print | Product List | Glossary On
Versions: 1 2 3 4 5 6 7 8 9 10 11 12 13 14 15 16 17 18 19 20 21 22 23 24 25 26 27 28 29 30 31 32 33 34 35 36 37 38 39 40 41 42 43 44 45 46 47 48 49 50
000
ASUS43 KFSD 172010
RWRSD

WEATHER ROUNDUP FOR SOUTH DAKOTA
NATIONAL WEATHER SERVICE SIOUX FALLS SD
200 PM CST WED DEC 17 2014

NOTE: "FAIR" INDICATES FEW OR NO CLOUDS BELOW 12,000 FEET WITH NO
SIGNIFICANT WEATHER AND/OR OBSTRUCTIONS TO VISIBILITY.


SDZ001>005-009-010-012>017-172100-
NORTHWEST AND NORTH CENTRAL SOUTH DAKOTA

CITY           SKY/WX    TMP DP  RH WIND       PRES   REMARKS
BUFFALO          N/A     19  16  88 SE12      29.95F WCI   7
FAITH            N/A     17  14  88 SE14      30.08S WCI   3
MOBRIDGE       MOSUNNY   20  11  68 S13       30.17F WCI   7
$$

SDZ012>016-024>037-041>051-057-063-072>074-172100-
SOUTHWEST AND SOUTH CENTRAL SOUTH DAKOTA

CITY           SKY/WX    TMP DP  RH WIND       PRES   REMARKS
RAPID CTY ARPT CLOUDY    23  20  88 E6        29.98F WCI  16
PIERRE         CLOUDY    17  14  88 SE16      30.17F WCI   2
CUSTER         MOSUNNY   35  18  49 W9G17     29.85F WCI  28
ELLSWORTH AFB  CLOUDY    22  20  93 E5        29.97F FOG     WCI  15
PHILIP         CLOUDY    24  18  77 SE10      30.08F WCI  14
PINE RIDGE     PTSUNNY   26  20  77 S12       29.98F WCI  16
$$

SDZ004>011-016>023-039-040-172100-
NORTHEAST SOUTH DAKOTA

CITY           SKY/WX    TMP DP  RH WIND       PRES   REMARKS
ABERDEEN       SUNNY     19  11  70 E6        30.28F WCI  11
WATERTOWN      SUNNY     18  12  77 NW3       30.24F
SISSETON         N/A     15   9  76 N7        30.30F WCI   5
$$

SDZ017-020-022-023-036>040-048>070-172100-
SOUTHEAST SOUTH DAKOTA

CITY           SKY/WX    TMP DP  RH WIND       PRES   REMARKS
SIOUX FALLS    PTSUNNY   18  10  71 NE5       30.26F WCI  11
HURON          SUNNY     14  10  84 E3        30.27F
CHAMBERLAIN    CLOUDY    17  14  86 SE10      30.21F WCI   5
MITCHELL         N/A     16  13  88 MISG      30.28F
YANKTON        SUNNY     18  10  73 CALM      30.29S
$$

ABBREVIATIONS USED IN REMARKS
   TC - TEMPERATURE IN CELSIUS
  WCI - WIND CHILL INDEX
   HX - HEAT INDEX
  VSB - VISIBILITY




USA.gov is the U.S. government's official web portal to all federal, state and local government web resources and services.